Flag for Russia Weather past 2 weeks in Volgograd, Russia

Now
91 °F

Sunny.


Feels Like: 87 °F
Forecast: 67 / 87 °F
Wind: 6 mph from Northeast

Location: Volgograd Airport

Current Time: Aug 4, 2015 at 3:46:25 PM

Latest Report: Aug 4, 2015 at 3:00 PM


Visibility: 10 mi

Pressure: 30.04 "Hg

Humidity: 14%

Dew point: 36 °F

Location of VolgogradLocation

Historic Weather in Volgograd — Graph

°F

Volgograd temperature yesterday

Maximum temperature yesterday: 88 °F (at 3:30 PM)
Minimum temperature yesterday: 63 °F (at 5:00 AM)
Average temperature yesterday: 76 °F

Past Weeks' High & Low Weather Summary

 TemperatureHumidityPressure
High104 °F (Aug 1, 2:00 PM)94% (Jul 21, 7:00 PM)30.24 "Hg (Jul 21, 7:00 PM)
Low54 °F (Jul 22, 4:00 AM)10% (Aug 1, 2:00 PM)29.68 "Hg (Jul 21, 11:30 AM)
Average80 °F36%29.91 "Hg
* Reported Jul 20 2:00 PM — Aug 4 2:30 PM, Volgograd, Weather by CustomWeather, © 2015

Note: Actual official high and low records may vary slightly from our data, if they occured in-between our weather recording intervals... More about our weather records

Advertising

Volgograd weather history for previous 24 hours

 ConditionsComfort  
Time TempWeatherWind HumidityBarometerVisibility
2:30 PM
Tue, Aug 4
91 °FPassing clouds.6 mph14%30.04 "HgN/A
2:00 PM90 °FPassing clouds.6 mph15%30.04 "HgN/A
1:30 PM90 °FPassing clouds.8 mph15%30.07 "HgN/A
1:00 PM90 °FSunny.6 mph15%30.07 "Hg10 mi
12:30 PM90 °FSunny.3 mph15%30.09 "Hg10 mi
12:00 PM88 °FPassing clouds.6 mph16%30.09 "HgN/A
11:30 AM88 °FPassing clouds.6 mph16%30.09 "HgN/A
11:00 AM86 °FSunny.6 mph17%30.09 "Hg10 mi
10:30 AM86 °FPassing clouds.6 mph17%30.09 "HgN/A
10:00 AM86 °FPassing clouds.6 mph15%30.12 "HgN/A
9:30 AM86 °FPassing clouds.10 mph17%30.12 "HgN/A
9:00 AM84 °FSunny.10 mph18%30.12 "Hg10 mi
8:30 AM82 °FPassing clouds.10 mph20%30.12 "HgN/A
8:00 AM81 °FSunny.8 mph23%30.12 "Hg10 mi
7:30 AM79 °FSunny.8 mph28%30.12 "Hg10 mi
7:00 AM75 °FSunny.8 mph34%30.12 "Hg10 mi
6:00 AM70 °FSunny.8 mph50%30.12 "Hg10 mi
5:30 AM68 °FSunny.10 mph53%30.12 "Hg10 mi
5:00 AM68 °FSunny.10 mph53%30.12 "Hg10 mi
4:30 AM68 °FClear.10 mph49%30.12 "Hg10 mi
4:00 AM68 °FClear.10 mph49%30.12 "Hg10 mi
3:30 AM68 °FClear.10 mph46%30.12 "Hg10 mi
3:00 AM68 °FClear.10 mph46%30.12 "Hg10 mi
2:30 AM70 °FClear.10 mph43%30.12 "Hg10 mi
2:00 AM70 °FClear.10 mph43%30.12 "Hg10 mi
1:30 AM70 °FClear.10 mph43%30.12 "Hg10 mi
1:00 AM72 °FClear.10 mph38%30.12 "Hg10 mi
12:30 AM72 °FClear.8 mph33%30.12 "Hg10 mi
12:00 AM72 °FClear.10 mph31%30.12 "Hg10 mi
11:30 PM
Mon, Aug 3
72 °FClear.8 mph31%30.15 "Hg10 mi
11:00 PM72 °FClear.8 mph31%30.15 "Hg10 mi
10:30 PM73 °FClear.8 mph27%30.15 "Hg10 mi
10:00 PM75 °FClear.10 mph25%30.15 "Hg10 mi
9:30 PM75 °FClear.8 mph25%30.15 "Hg10 mi
9:00 PM75 °FClear.8 mph25%30.15 "Hg10 mi
8:30 PM75 °FClear.8 mph24%30.15 "Hg10 mi
8:00 PM77 °FClear.6 mph22%30.15 "Hg10 mi
7:30 PM79 °FSunny.6 mph21%30.12 "Hg10 mi
7:00 PM84 °FSunny.8 mph16%30.12 "Hg10 mi
6:30 PM84 °FPassing clouds.8 mph16%30.12 "HgN/A
6:00 PM86 °FSunny.8 mph15%30.12 "Hg10 mi
5:30 PM86 °FPassing clouds.8 mph15%30.12 "HgN/A
5:00 PM86 °FPassing clouds.10 mph15%30.15 "HgN/A
4:30 PM88 °FPassing clouds.10 mph12%30.15 "HgN/A
4:00 PM86 °FPassing clouds.10 mph17%30.15 "HgN/A
3:30 PM88 °FPassing clouds.13 mph16%30.15 "HgN/A
3:00 PM86 °FPassing clouds.13 mph18%30.15 "HgN/A
Weather by CustomWeather, © 2015

See weather overviewHow to use our weather pages